PSLV R/B

Satellite information

Favourite Embed

Satellite Type and Status

ROCKET BODYIN ORBIT

Key statistics

Satellite PSLV R/B at a glance.

Uptime

5017

Days in orbit

Revolutions

≈ 14.2

Per day

Orbit

LEO

Low Earth Orbit

Inclination

19.8

Latest

Satellite identification and parameters

Extended collection of information and parameters for PSLV R/B.

Object identification

Identified? True

Debris? False

Object name: PSLV R/B

International designator: 2011-058E

Object number (NORAD): 37842

Object ID (CCSDS): 37842

Country: INDIA (IND)

Current information (Y/N): Y

RCS size: LARGE

Orbital parameters

Period: 101.285 minutes

Inclination: 19.792 deg

SMA: 7197.627 km

Apoapsis: 862.409 km

Periapsis: 776.576 km

RAAN: 146.9147 deg

Eccentricy: 0.0059626

Argument of periapsis: 81.6532 deg

Mean anomaly: 279.0626 deg

Mean motion: 14.21735296 rev/day

Mean motion (dot): 0.00000374 rev/day2

B* drag term: 0.000043476 1/REarth

Two-line elements (TLE)

Creation date: July 6, 2025, 6:05 p.m.

Reference frame: TEME

Reference center: EARTH

Epoch: July 6, 2025, 5:13 a.m. UTC

TLE line 0: 0 PSLV R/B

TLE line 1: 1 37842U 11058E 25187.21752418 .00000374 00000-0 43476-4 0 9994

TLE line 2: 2 37842 19.7920 146.9147 0059626 81.6532 279.0626 14.21735296714250

Live tracking on map

Real-time ground track for satellite PSLV R/B.

In-orbit conjunctions

A list of the most updated potential collisions computed for object PSLV R/B.

Target Orbit TCA Probability of collision Miss distance Type
CZ-6A DEB SSO 2025-02-06 10:09:24 0.0002300679 730.0 (m) DEBRIS
FENGYUN 1C DEB SSO 2024-11-12 23:51:09 0.02457122 38.0 (m) DEBRIS
COSMOS 2251 DEB LEO 2024-07-28 05:53:47 0.0001799246 218.0 (m) DEBRIS

Associated space launch

PSLV R/B was lifted into orbit during the mission ‘PSLV-CA | Megha-Tropiques’, on board a PSLV space rocket.

The launch took place on Oct. 12, 2011, 5:31 a.m. from Satish Dhawan Space Centre First Launch Pad.

For more information about the launch, click the button.

Launch to space PSLV-CA | Megha-Tropiques
PSLV-CA | Megha-Tropiques

Agency: N/A

Status: Launch Successful

Launch date: Oct. 12, 2011, 5:31 a.m. UTC

Rocket: PSLV

Launch pad: Satish Dhawan Space Centre First Launch Pad

Location: Satish Dhawan Space Centre, India

...

Latest news about this satellite

There are no fresh news available about this satellite. Check back as we update our databases every day.


Newsletter sign-up

Weekly statistics, charts and insights to help you stay on top of the space industry.